Overview Statistics Trail Chart Weather Telemetry Raw packets
 

This is the latest recevied weather packets stored in our database for station/object WX5KDM. If no packets are shown the sender has not sent any weather packets the latest 10 day(s).

<< 90 91 92 93 94 95 96 >>
Time Temp. Humidity Pressure Rain* Wind** Luminosity Snow
1787952848 32.22° C 43% 1016.7 hPa 0 mm - - -
1787952543 32.78° C 43% 1016.6 hPa 0 mm - - -
1787952241 32.22° C 44% 1016.8 hPa 0 mm - - -
1787951938 32.78° C 44% 1016.7 hPa 0 mm - - -
1787951633 32.22° C 43% 1016.8 hPa 0 mm - - -
1787951329 32.22° C 44% 1016.9 hPa 0 mm - - -
1787951025 32.22° C 44% 1017 hPa 0 mm - - -
1787950719 32.22° C 46% 1017 hPa 0 mm - - -
1787950416 32.22° C 46% 1017.1 hPa 0 mm - - -
1787950112 32.78° C 45% 1017 hPa 0 mm - - -
1787949807 32.22° C 48% 1017.1 hPa 0 mm - - -
1787949507 32.22° C 46% 1017.3 hPa 0 mm - - -
1787949202 32.22° C 45% 1017.2 hPa 0 mm - - -
1787948898 32.22° C 46% 1017.4 hPa 0 mm - - -
1787948593 32.22° C 46% 1017.6 hPa 0 mm - - -
1787948289 32.22° C 45% 1017.3 hPa 0 mm - - -
1787947988 32.22° C 45% 1017.5 hPa 0 mm - - -
1787947687 32.22° C 44% 1017.7 hPa 0 mm - - -
1787947381 31.67° C 46% 1017.7 hPa 0 mm - - -
1787947080 32.22° C 46% 1017.7 hPa 0 mm - - -
1787946779 32.22° C 45% 1017.9 hPa 0 mm - - -
1787946477 32.78° C 46% 1017.8 hPa 0 mm - - -
1787946173 32.22° C 46% 1017.9 hPa 0 mm - - -
1787945868 32.22° C 46% 1018 hPa 0 mm - - -
1787945563 32.22° C 45% 1018.2 hPa 0 mm - - -

* Rain latest hour (hover to see other rain measurements)
** Current wind speed in m/s (hover to see current wind gust speed)